Regional Weather Roundup
Issued by NWS

Home | Current Version | Previous Version | Text Only | Print | Product List | Glossary Off
Versions: 1 2 3 4 5 6 7 8 9 10 11 12 13 14 15 16 17 18 19 20 21 22 23 24 25 26 27 28 29 30 31 32 33 34 35 36 37 38 39 40 41 42 43 44 45 46 47 48 49 50

759
ASUS45 KTFX 290410
RWRMT
MONTANA REGIONAL WEATHER ROUNDUP
NATIONAL WEATHER SERVICE GREAT FALLS MT
1000 PM MDT SUN AUG 28 2016

NOTE: "FAIR" INDICATES FEW OR NO CLOUDS BELOW 12000 FEET WITH NO
SIGNIFICANT WEATHER AND/OR OBSTRUCTIONS TO VISIBILITY.

MTZ001>007-043-290500-
WEST OF THE DIVIDE

CITY           SKY/WX    TMP DP  RH WIND       PRES   REMARKS
KALISPELL      CLOUDY    63  40  42 VRB6      30.13R
MISSOULA       CLEAR     67  35  30 N8        30.15R
BUTTE          CLEAR     58  32  37 S6        30.28R
MULLAN PASS    CLEAR     59  29  31 SW6       30.28R
DEER LODGE       N/A     61  36  39 W6        30.25R
EUREKA           N/A     68  39  34 E5        30.13R
HAMILTON         N/A     64  43  45 CALM      30.17R
LIBBY            N/A     64  39  39 CALM      30.13R
PLAINS           N/A     64  37  36 CALM      30.12R
RONAN            N/A     56  43  61 CALM      30.18R
THOMPSON FALLS   N/A     62  36  38 CALM      30.16R
$$

MTZ008-052>055-290500-
SOUTHWEST MONTANA

CITY           SKY/WX    TMP DP  RH WIND       PRES   REMARKS
BOZEMAN        CLEAR     63  46  54 S7        30.20R
DILLON         CLEAR     65  34  31 E10       30.22R
W YELLOWSTONE  CLOUDY    57  30  35 CALM      30.33R
ENNIS          CLEAR     68  36  30 NE12      30.29R
THREE FORKS      N/A     58  -2   9 CALM      30.17R
TWIN BRIDGES     N/A     73  34  24 N9        30.17R
$$

MTZ009-010-012-014-046-048-049-054-290500-
EAST SLOPES AND CENTRAL MONTANA

CITY           SKY/WX    TMP DP  RH WIND       PRES   REMARKS
CUT BANK       MOCLDY    57  41  55 E10       30.22R
GREAT FALLS    CLOUDY    62  44  51 NE12      30.20R
MALMSTROM AFB  CLOUDY    60  46  59 MISG      30.20R
HELENA         CLEAR     68  43  40 NW8       30.20R
CHOTEAU          N/A     57  43  58 NE5       30.25R
CONRAD           N/A     58  48  69 N2        30.23R
$$

MTZ011-013-016-021-045-047-050-051-290500-
NORTH CENTRAL MONTANA

CITY           SKY/WX    TMP DP  RH WIND       PRES   REMARKS
HAVRE          CLEAR     60  45  57 NE8       30.19R
LEWISTOWN      CLEAR     63  45  51 SE6       30.22R
N BAR RANCH      N/A     64  43  45 VRB6G15   30.26R
CHINOOK          N/A     61  46  59 CALM      30.19R
$$

MTZ017>020-022>027-061-062-290500-
NORTHEAST MONTANA

CITY           SKY/WX    TMP DP  RH WIND       PRES   REMARKS
GLASGOW        CLOUDY    66  48  52 N10G17    30.14R
JORDAN           N/A     74  47  38 N13       30.12R
SIDNEY         CLEAR     69  50  50 N10       30.09R
WOLF POINT     CLOUDY    70  49  47 N10       30.13R
POPLAR           N/A     64  48  55 NE8       30.13R
SCOBEY           N/A     56  44  64 CALM      30.15R
$$

MTZ028>42-056>058-290500-
SOUTHCENTRAL AND SOUTHEAST MONTANA

CITY           SKY/WX    TMP DP  RH WIND       PRES   REMARKS
BAKER          CLEAR     71  45  39 NE3       30.10R
BILLINGS       CLOUDY    75  43  31 NE12      30.15R
LIVINGSTON     CLOUDY    70  42  36 SE12      30.22R
MILES CITY     CLEAR     75  44  33 N10       30.08R
EKALAKA          N/A     73  42  32 NE8       30.10R
FORSYTH          N/A     73  46  38 N3        30.10R
LAUREL           N/A     75  42  30 N5        30.13R
ROUNDUP          N/A     71  43  36 N7        30.08R
$$

REGIONAL REPORTS...DAKOTAS

CITY           SKY/WX    TMP DP  RH WIND       PRES   REMARKS
WILLISTON      CLEAR     69  49  48 N7        30.09R
MINOT          CLEAR     69  54  58 NW9       30.05R
DICKINSON      CLOUDY    73  45  36 NE12      30.07R
CROSBY           N/A     59  48  67 NW8       30.13R
WATFORD CITY     N/A     66  50  55 N8        30.09R
BISMARCK       CLEAR     70  60  70 N3        29.98R
GRAND FORKS    CLOUDY    72  61  68 SE14      29.94R
FARGO          CLOUDY    80  73  79 S14       29.94S
BUFFALO SD       N/A     71  47  42 NE14      30.03R
RAPID CITY     CLEAR     69  50  50 N5        30.06R
$$

REGIONAL REPORTS...WYOMING/IDAHO/WASHINGTON

CITY           SKY/WX    TMP DP  RH WIND       PRES   REMARKS
GILLETTE       CLEAR     60  37  42 CALM      30.14R
SHERIDAN       PTCLDY    65  45  48 CALM      30.15R
BUFFALO WY     CLEAR     68  32  26 W9        30.22R
CODY           CLOUDY    70  34  26 CALM      30.22R
YELLOWSTONE LA   N/A     51  34  52 CALM      30.44R
IDAHO FALLS    CLEAR     74  35  24 S10       30.20R
SALMON         CLOUDY    64  39  39 S3        30.15R
BOISE          CLEAR     76  40  27 E5        30.05R
SPOKANE        MOCLDY    73  33  23 SW5       30.09R
$$

REGIONAL REPORTS...ALBERTA

CITY           SKY/WX    TMP DP  RH WIND       PRES   REMARKS
EDMONTON       PTCLDY    45  39  81 NE2       30.19S
CALGARY        CLOUDY    54  45  71 E8        30.22R
LETHBRIDGE     PTCLDY    50  43  76 CALM      30.22R
MEDICINE HAT   CLEAR     54  45  71 NE5       30.22R
WATERTON GATE    N/A     45  41  87 CALM        N/A
CARDSTON         N/A     50  41  71 S1          N/A
MILK RIVER       N/A     50  41  71 NE9         N/A
ONEFOUR          N/A     52  43  71 N12         N/A
$$

REGIONAL REPORTS...SASKATCHEWAN

CITY           SKY/WX    TMP DP  RH WIND       PRES   REMARKS
SWIFT CURRENT  CLEAR     48  45  87 NW8       30.20R
REGINA         PTCLDY    52  45  76 NW12      30.15R
SASKATOON      CLOUDY    54  43  66 NW10G18   30.18R
CYPRESS HILLS    N/A     48  41  76 N5          N/A
VAL MARIE        N/A     48  41  76 NE5         N/A
ROCKGLEN         N/A     55  46  71 N8          N/A
$$




USA.gov is the U.S. government's official web portal to all federal, state and local government web resources and services.